,,PressureMeas_1m,,PRMeasQMR101_1,,RHStat155_1m_1,,SRMeasQMS101R_1m,,TAStat155_1m_1,,GenWind_1,,GenWind_1,
2018-06-26, 00:00:07,VALID,918.797,VALID,0.0,VALID,92.236,VALID,0.037,VALID,18.465,VALID,123.0,VALID,2.014,
2018-06-26, 00:01:07,VALID,918.795,VALID,0.0,VALID,92.025,VALID,0.038,VALID,18.487,VALID,131.0,VALID,1.166,
2018-06-26, 00:02:07,VALID,918.773,VALID,0.0,VALID,92.228,VALID,0.016,VALID,18.476,VALID,119.0,VALID,1.348,
2018-06-26, 00:03:07,VALID,918.765,VALID,0.0,VALID,92.325,VALID,0.04,VALID,18.454,VALID,126.0,VALID,1.312,
2018-06-26, 00:04:07,VALID,918.743,VALID,0.0,VALID,91.712,VALID,0.046,VALID,18.471,VALID,118.0,VALID,1.892,
2018-06-26, 00:05:07,VALID,918.726,VALID,0.0,VALID,91.346,VALID,0.059,VALID,18.521,VALID,123.0,VALID,1.743,
2018-06-26, 00:06:07,VALID,918.713,VALID,0.0,VALID,91.752,VALID,0.049,VALID,18.549,VALID,129.0,VALID,1.291,
2018-06-26, 00:07:07,VALID,918.703,VALID,0.0,VALID,91.848,VALID,0.046,VALID,18.543,VALID,121.0,VALID,1.22,
2018-06-26, 00:08:07,VALID,918.702,VALID,0.0,VALID,92.406,VALID,0.038,VALID,18.508,VALID,127.0,VALID,1.489,
2018-06-26, 00:09:07,VALID,918.689,VALID,0.0,VALID,92.942,VALID,0.036,VALID,18.497,VALID,134.0,VALID,1.521,
2018-06-26, 00:10:07,VALID,918.671,VALID,0.0,VALID,92.998,VALID,0.043,VALID,18.494,VALID,124.0,VALID,1.801,
2018-06-26, 00:11:07,VALID,918.662,VALID,0.0,VALID,93.45,VALID,0.044,VALID,18.48,VALID,141.0,VALID,1.206,
2018-06-26, 00:12:07,VALID,918.661,VALID,0.0,VALID,93.353,VALID,0.041,VALID,18.473,VALID,132.0,VALID,1.526,
2018-06-26, 00:13:07,VALID,918.657,VALID,0.0,VALID,93.397,VALID,0.027,VALID,18.46,VALID,128.0,VALID,1.532,
2018-06-26, 00:14:07,VALID,918.652,VALID,0.0,VALID,93.691,VALID,0.034,VALID,18.445,VALID,130.0,VALID,1.196,
2018-06-26, 00:15:07,VALID,918.666,VALID,0.0,VALID,93.485,VALID,0.014,VALID,18.431,VALID,127.0,VALID,1.619,
2018-06-26, 00:16:07,VALID,918.674,VALID,0.0,VALID,93.461,VALID,0.036,VALID,18.439,VALID,127.0,VALID,1.385,
2018-06-26, 00:17:07,VALID,918.661,VALID,0.0,VALID,93.821,VALID,0.02,VALID,18.426,VALID,130.0,VALID,1.896,
2018-06-26, 00:18:07,VALID,918.648,VALID,0.0,VALID,94.059,VALID,0.044,VALID,18.452,VALID,171.0,VALID,0.829,
2018-06-26, 00:19:07,VALID,918.658,VALID,0.0,VALID,94.194,VALID,0.044,VALID,18.482,VALID,129.0,VALID,1.553,
2018-06-26, 00:20:07,VALID,918.647,VALID,0.0,VALID,94.334,VALID,0.059,VALID,18.501,VALID,169.0,VALID,0.935,
2018-06-26, 00:21:07,VALID,918.638,VALID,0.0,VALID,94.499,VALID,0.057,VALID,18.501,VALID,144.0,VALID,0.876,
2018-06-26, 00:22:07,VALID,918.626,VALID,0.0,VALID,94.541,VALID,0.042,VALID,18.495,VALID,135.0,VALID,1.26,
2018-06-26, 00:23:07,VALID,918.618,VALID,0.0,VALID,94.511,VALID,0.025,VALID,18.488,VALID,150.0,VALID,1.132,
2018-06-26, 00:24:06,VALID,918.617,VALID,0.0,VALID,94.359,VALID,0.051,VALID,18.49,VALID,162.0,VALID,0.555,
2018-06-26, 00:25:06,VALID,918.618,VALID,0.0,VALID,94.376,VALID,0.045,VALID,18.502,VALID,149.0,VALID,0.513,
2018-06-26, 00:26:06,VALID,918.601,VALID,0.0,VALID,94.514,VALID,0.041,VALID,18.507,VALID,163.0,VALID,0.334,
2018-06-26, 00:27:06,VALID,918.597,VALID,0.0,VALID,94.649,VALID,0.029,VALID,18.505,VALID,132.0,VALID,0.529,
2018-06-26, 00:28:06,VALID,918.578,VALID,0.0,VALID,94.681,VALID,0.038,VALID,18.488,VALID,130.0,VALID,0.986,
2018-06-26, 00:29:06,VALID,918.572,VALID,0.0,VALID,94.654,VALID,0.035,VALID,18.487,VALID,142.0,VALID,1.023,
2018-06-26, 00:30:06,VALID,918.562,VALID,0.0,VALID,94.505,VALID,0.068,VALID,18.512,VALID,133.0,VALID,1.184,
2018-06-26, 00:31:06,VALID,918.546,VALID,0.0,VALID,94.234,VALID,0.045,VALID,18.574,VALID,126.0,VALID,1.66,
2018-06-26, 00:32:06,VALID,918.533,VALID,0.0,VALID,94.008,VALID,0.066,VALID,18.644,VALID,129.0,VALID,1.007,
2018-06-26, 00:33:06,VALID,918.509,VALID,0.0,VALID,93.881,VALID,0.061,VALID,18.679,VALID,136.0,VALID,0.92,
2018-06-26, 00:34:06,VALID,918.495,VALID,0.0,VALID,93.88,VALID,0.055,VALID,18.693,VALID,118.0,VALID,1.109,
2018-06-26, 00:35:06,VALID,918.478,VALID,0.0,VALID,93.85,VALID,0.048,VALID,18.687,VALID,136.0,VALID,0.97,
2018-06-26, 00:36:06,VALID,918.461,VALID,0.0,VALID,93.838,VALID,0.041,VALID,18.685,VALID,120.0,VALID,1.425,
2018-06-26, 00:37:06,VALID,918.435,VALID,0.0,VALID,93.852,VALID,0.039,VALID,18.689,VALID,114.0,VALID,1.191,
2018-06-26, 00:38:06,VALID,918.422,VALID,0.0,VALID,93.948,VALID,0.055,VALID,18.664,VALID,118.0,VALID,1.516,
2018-06-26, 00:39:06,VALID,918.382,VALID,0.0,VALID,93.952,VALID,0.044,VALID,18.658,VALID,123.0,VALID,1.556,
2018-06-26, 00:40:06,VALID,918.375,VALID,0.0,VALID,93.899,VALID,0.045,VALID,18.653,VALID,123.0,VALID,1.802,
2018-06-26, 00:41:06,VALID,918.346,VALID,0.0,VALID,93.92,VALID,0.044,VALID,18.665,VALID,116.0,VALID,1.26,
2018-06-26, 00:42:06,VALID,918.333,VALID,0.0,VALID,93.935,VALID,0.048,VALID,18.641,VALID,113.0,VALID,1.255,
2018-06-26, 00:43:06,VALID,918.307,VALID,0.0,VALID,93.946,VALID,0.048,VALID,18.623,VALID,109.0,VALID,1.2,
2018-06-26, 00:44:06,VALID,918.286,VALID,0.0,VALID,93.945,VALID,0.033,VALID,18.604,VALID,103.0,VALID,0.991,
2018-06-26, 00:45:06,VALID,918.276,VALID,0.0,VALID,93.995,VALID,0.058,VALID,18.595,VALID,81.0,VALID,1.0,
2018-06-26, 00:46:06,VALID,918.269,VALID,0.0,VALID,93.996,VALID,0.042,VALID,18.575,VALID,92.0,VALID,1.032,
2018-06-26, 00:47:06,VALID,918.266,VALID,0.0,VALID,93.762,VALID,0.046,VALID,18.564,VALID,90.0,VALID,1.199,
2018-06-26, 00:48:06,VALID,918.252,VALID,0.0,VALID,93.915,VALID,0.051,VALID,18.567,VALID,91.0,VALID,0.914,
2018-06-26, 00:49:06,VALID,918.25,VALID,0.0,VALID,93.979,VALID,0.047,VALID,18.553,VALID,88.0,VALID,0.876,
2018-06-26, 00:50:06,VALID,918.244,VALID,0.0,VALID,93.974,VALID,0.034,VALID,18.542,VALID,89.0,VALID,0.929,
2018-06-26, 00:51:06,VALID,918.222,VALID,0.0,VALID,93.923,VALID,0.018,VALID,18.518,VALID,91.0,VALID,1.091,
2018-06-26, 00:52:06,VALID,918.22,VALID,0.0,VALID,94.063,VALID,0.033,VALID,18.506,VALID,90.0,VALID,1.28,
2018-06-26, 00:53:06,VALID,918.212,VALID,0.0,VALID,94.061,VALID,0.033,VALID,18.48,VALID,92.0,VALID,1.526,
2018-06-26, 00:54:06,VALID,918.209,VALID,0.0,VALID,94.043,VALID,0.039,VALID,18.463,VALID,93.0,VALID,1.582,
2018-06-26, 00:55:06,VALID,918.194,VALID,0.0,VALID,94.244,VALID,0.047,VALID,18.437,VALID,92.0,VALID,1.466,
2018-06-26, 00:56:06,VALID,918.182,VALID,0.0,VALID,94.4,VALID,0.031,VALID,18.415,VALID,98.0,VALID,1.434,
2018-06-26, 00:57:06,VALID,918.166,VALID,0.0,VALID,94.351,VALID,0.036,VALID,18.375,VALID,99.0,VALID,1.514,
2018-06-26, 00:58:06,VALID,918.146,VALID,0.0,VALID,94.163,VALID,0.038,VALID,18.351,VALID,97.0,VALID,1.546,
2018-06-26, 00:59:06,VALID,918.121,VALID,0.0,VALID,94.325,VALID,0.033,VALID,18.333,VALID,100.0,VALID,1.282,
2018-06-26, 01:00:06,VALID,918.107,VALID,0.0,VALID,94.48,VALID,0.026,VALID,18.314,VALID,104.0,VALID,1.639,
2018-06-26, 01:01:06,VALID,918.077,VALID,0.0,VALID,94.543,VALID,0.029,VALID,18.3,VALID,104.0,VALID,1.18,
2018-06-26, 01:02:06,VALID,918.035,VALID,0.0,VALID,94.796,VALID,0.026,VALID,18.28,VALID,105.0,VALID,1.424,
2018-06-26, 01:03:06,VALID,918.012,VALID,0.0,VALID,94.828,VALID,0.015,VALID,18.248,VALID,108.0,VALID,1.804,
2018-06-26, 01:04:06,VALID,917.991,VALID,0.0,VALID,94.801,VALID,0.039,VALID,18.237,VALID,112.0,VALID,1.937,
2018-06-26, 01:05:06,VALID,917.975,VALID,0.0,VALID,94.412,VALID,0.008,VALID,18.232,VALID,112.0,VALID,2.041,
2018-06-26, 01:06:06,VALID,917.948,VALID,0.0,VALID,93.385,VALID,0.011,VALID,18.245,VALID,112.0,VALID,2.08,
2018-06-26, 01:07:06,VALID,917.936,VALID,0.0,VALID,92.847,VALID,0.019,VALID,18.266,VALID,115.0,VALID,1.986,
2018-06-26, 01:08:06,VALID,917.924,VALID,0.0,VALID,91.998,VALID,0.005,VALID,18.246,VALID,114.0,VALID,2.225,
2018-06-26, 01:09:06,VALID,917.913,VALID,0.0,VALID,92.338,VALID,0.012,VALID,18.268,VALID,120.0,VALID,1.939,
2018-06-26, 01:10:06,VALID,917.898,VALID,0.0,VALID,93.487,VALID,0.016,VALID,18.24,VALID,120.0,VALID,2.022,
2018-06-26, 01:11:06,VALID,917.883,VALID,0.0,VALID,93.988,VALID,0.022,VALID,18.16,VALID,120.0,VALID,2.055,
2018-06-26, 01:12:06,VALID,917.875,VALID,0.0,VALID,94.317,VALID,0.018,VALID,18.085,VALID,118.0,VALID,2.195,
2018-06-26, 01:13:06,VALID,917.861,VALID,0.0,VALID,93.984,VALID,0.03,VALID,18.059,VALID,117.0,VALID,1.85,
2018-06-26, 01:14:06,VALID,917.847,VALID,0.0,VALID,93.468,VALID,0.018,VALID,18.026,VALID,111.0,VALID,2.03,
2018-06-26, 01:15:06,VALID,917.844,VALID,0.0,VALID,92.397,VALID,0.008,VALID,18.035,VALID,111.0,VALID,2.566,
2018-06-26, 01:16:06,VALID,917.825,VALID,0.0,VALID,92.539,VALID,0.021,VALID,18.069,VALID,111.0,VALID,2.647,
2018-06-26, 01:17:06,VALID,917.815,VALID,0.0,VALID,92.753,VALID,0.023,VALID,18.099,VALID,107.0,VALID,2.02,
2018-06-26, 01:18:06,VALID,917.797,VALID,0.0,VALID,93.118,VALID,0.016,VALID,18.101,VALID,109.0,VALID,1.703,
2018-06-26, 01:19:06,VALID,917.787,VALID,0.0,VALID,93.645,VALID,0.012,VALID,18.086,VALID,109.0,VALID,2.197,
2018-06-26, 01:20:06,VALID,917.785,VALID,0.0,VALID,94.152,VALID,-0.033,VALID,18.085,VALID,111.0,VALID,2.227,
2018-06-26, 01:21:06,VALID,917.773,VALID,0.0,VALID,94.423,VALID,-0.062,VALID,18.088,VALID,109.0,VALID,1.865,
2018-06-26, 01:22:06,VALID,917.763,VALID,0.0,VALID,94.708,VALID,-0.053,VALID,18.086,VALID,109.0,VALID,1.959,
2018-06-26, 01:23:06,VALID,917.752,VALID,0.0,VALID,94.722,VALID,-0.032,VALID,18.102,VALID,105.0,VALID,2.139,
2018-06-26, 01:24:06,VALID,917.747,VALID,0.0,VALID,94.536,VALID,-0.051,VALID,18.116,VALID,109.0,VALID,2.039,
2018-06-26, 01:25:06,VALID,917.733,VALID,0.0,VALID,94.421,VALID,-0.048,VALID,18.12,VALID,116.0,VALID,2.228,
2018-06-26, 01:26:06,VALID,917.723,VALID,0.0,VALID,93.909,VALID,-0.043,VALID,18.132,VALID,111.0,VALID,2.37,
2018-06-26, 01:27:06,VALID,917.714,VALID,0.0,VALID,93.261,VALID,-0.05,VALID,18.189,VALID,108.0,VALID,2.724,
2018-06-26, 01:28:06,VALID,917.691,VALID,0.0,VALID,92.843,VALID,-0.072,VALID,18.235,VALID,112.0,VALID,2.436,
2018-06-26, 01:29:06,VALID,917.686,VALID,0.0,VALID,92.391,VALID,-0.058,VALID,18.254,VALID,109.0,VALID,2.657,
2018-06-26, 01:30:06,VALID,917.667,VALID,0.0,VALID,92.188,VALID,-0.053,VALID,18.296,VALID,108.0,VALID,2.412,
2018-06-26, 01:31:06,VALID,917.666,VALID,0.0,VALID,91.98,VALID,-0.063,VALID,18.3,VALID,110.0,VALID,2.646,
2018-06-26, 01:32:06,VALID,917.657,VALID,0.0,VALID,91.818,VALID,-0.05,VALID,18.316,VALID,109.0,VALID,2.398,
2018-06-26, 01:33:06,VALID,917.644,VALID,0.0,VALID,91.379,VALID,-0.058,VALID,18.309,VALID,109.0,VALID,2.621,
2018-06-26, 01:34:06,VALID,917.643,VALID,0.0,VALID,90.979,VALID,-0.017,VALID,18.327,VALID,109.0,VALID,2.292,
2018-06-26, 01:35:06,VALID,917.632,VALID,0.0,VALID,90.935,VALID,0.014,VALID,18.333,VALID,106.0,VALID,2.303,
2018-06-26, 01:36:06,VALID,917.608,VALID,0.0,VALID,90.829,VALID,-0.006,VALID,18.334,VALID,99.0,VALID,1.87,
2018-06-26, 01:37:06,VALID,917.592,VALID,0.0,VALID,91.047,VALID,0.012,VALID,18.318,VALID,101.0,VALID,1.86,
2018-06-26, 01:38:06,VALID,917.578,VALID,0.0,VALID,91.084,VALID,0.012,VALID,18.293,VALID,96.0,VALID,1.9,
2018-06-26, 01:39:06,VALID,917.553,VALID,0.0,VALID,90.789,VALID,0.009,VALID,18.29,VALID,96.0,VALID,1.7,
2018-06-26, 01:40:06,VALID,917.557,VALID,0.0,VALID,90.774,VALID,0.014,VALID,18.296,VALID,95.0,VALID,1.707,
2018-06-26, 01:41:06,VALID,917.532,VALID,0.0,VALID,90.918,VALID,0.021,VALID,18.279,VALID,90.0,VALID,1.495,
2018-06-26, 01:42:06,VALID,917.516,VALID,0.0,VALID,91.149,VALID,0.015,VALID,18.254,VALID,89.0,VALID,1.369,
2018-06-26, 01:43:06,VALID,917.511,VALID,0.0,VALID,90.785,VALID,0.011,VALID,18.229,VALID,92.0,VALID,1.538,
2018-06-26, 01:44:06,VALID,917.487,VALID,0.0,VALID,90.714,VALID,0.016,VALID,18.235,VALID,100.0,VALID,1.386,
2018-06-26, 01:45:06,VALID,917.472,VALID,0.0,VALID,90.281,VALID,0.016,VALID,18.224,VALID,101.0,VALID,1.748,
2018-06-26, 01:46:06,VALID,917.449,VALID,0.0,VALID,90.222,VALID,0.012,VALID,18.215,VALID,102.0,VALID,1.835,
2018-06-26, 01:47:06,VALID,917.434,VALID,0.0,VALID,90.304,VALID,-0.004,VALID,18.219,VALID,104.0,VALID,1.728,
2018-06-26, 01:48:06,VALID,917.407,VALID,0.0,VALID,90.181,VALID,0.011,VALID,18.191,VALID,106.0,VALID,1.921,
2018-06-26, 01:49:06,VALID,917.388,VALID,0.0,VALID,90.422,VALID,0.023,VALID,18.181,VALID,102.0,VALID,1.446,
2018-06-26, 01:50:06,VALID,917.36,VALID,0.0,VALID,90.352,VALID,0.01,VALID,18.154,VALID,105.0,VALID,1.828,
2018-06-26, 01:51:06,VALID,917.328,VALID,0.0,VALID,90.115,VALID,0.013,VALID,18.16,VALID,101.0,VALID,1.589,
2018-06-26, 01:52:06,VALID,917.308,VALID,0.0,VALID,90.215,VALID,-0.001,VALID,18.148,VALID,102.0,VALID,1.915,
2018-06-26, 01:53:06,VALID,917.285,VALID,0.0,VALID,90.148,VALID,-0.002,VALID,18.125,VALID,105.0,VALID,1.957,
2018-06-26, 01:54:06,VALID,917.248,VALID,0.0,VALID,89.885,VALID,0.02,VALID,18.108,VALID,108.0,VALID,2.425,
2018-06-26, 01:55:06,VALID,917.221,VALID,0.0,VALID,89.458,VALID,0.029,VALID,18.138,VALID,102.0,VALID,2.375,
2018-06-26, 01:56:06,VALID,917.204,VALID,0.0,VALID,89.56,VALID,0.013,VALID,18.138,VALID,104.0,VALID,2.12,
2018-06-26, 01:57:06,VALID,917.195,VALID,0.0,VALID,89.642,VALID,0.008,VALID,18.114,VALID,104.0,VALID,2.258,
2018-06-26, 01:58:06,VALID,917.179,VALID,0.0,VALID,89.272,VALID,-0.007,VALID,18.108,VALID,109.0,VALID,2.514,
2018-06-26, 01:59:06,VALID,917.166,VALID,0.0,VALID,89.212,VALID,0.012,VALID,18.114,VALID,107.0,VALID,2.422,
2018-06-26, 02:00:06,VALID,917.172,VALID,0.0,VALID,89.123,VALID,0.015,VALID,18.115,VALID,109.0,VALID,2.42,
2018-06-26, 02:01:06,VALID,917.158,VALID,0.0,VALID,89.466,VALID,0.021,VALID,18.131,VALID,108.0,VALID,2.344,
2018-06-26, 02:02:06,VALID,917.16,VALID,0.0,VALID,89.724,VALID,0.018,VALID,18.103,VALID,106.0,VALID,2.633,
2018-06-26, 02:03:06,VALID,917.16,VALID,0.0,VALID,89.886,VALID,0.012,VALID,18.121,VALID,105.0,VALID,2.446,
2018-06-26, 02:04:06,VALID,917.158,VALID,0.0,VALID,90.116,VALID,0.023,VALID,18.136,VALID,106.0,VALID,1.949,
2018-06-26, 02:05:06,VALID,917.162,VALID,0.0,VALID,90.368,VALID,0.018,VALID,18.108,VALID,108.0,VALID,2.379,
2018-06-26, 02:06:06,VALID,917.151,VALID,0.0,VALID,90.405,VALID,-0.005,VALID,18.113,VALID,108.0,VALID,2.011,
2018-06-26, 02:07:06,VALID,917.142,VALID,0.0,VALID,90.519,VALID,-0.008,VALID,18.104,VALID,110.0,VALID,1.909,
2018-06-26, 02:08:06,VALID,917.117,VALID,0.0,VALID,90.117,VALID,0.008,VALID,18.12,VALID,115.0,VALID,2.332,
2018-06-26, 02:09:06,VALID,917.102,VALID,0.0,VALID,89.609,VALID,0.013,VALID,18.174,VALID,109.0,VALID,2.419,
2018-06-26, 02:10:06,VALID,917.072,VALID,0.0,VALID,89.228,VALID,0.017,VALID,18.222,VALID,113.0,VALID,2.628,
2018-06-26, 02:11:06,VALID,917.043,VALID,0.0,VALID,88.871,VALID,0.011,VALID,18.26,VALID,116.0,VALID,2.5,
2018-06-26, 02:12:06,VALID,917.036,VALID,0.0,VALID,88.231,VALID,0.013,VALID,18.317,VALID,118.0,VALID,2.202,
2018-06-26, 02:13:06,VALID,917.027,VALID,0.0,VALID,88.518,VALID,0.005,VALID,18.341,VALID,115.0,VALID,1.829,
2018-06-26, 02:14:06,VALID,917.016,VALID,0.0,VALID,88.888,VALID,0.007,VALID,18.314,VALID,123.0,VALID,2.079,
2018-06-26, 02:15:06,VALID,917.015,VALID,0.0,VALID,88.144,VALID,0.006,VALID,18.326,VALID,120.0,VALID,2.117,
2018-06-26, 02:16:06,VALID,917.002,VALID,0.0,VALID,88.063,VALID,0.012,VALID,18.349,VALID,118.0,VALID,1.743,
2018-06-26, 02:17:06,VALID,917.003,VALID,0.0,VALID,87.872,VALID,0.01,VALID,18.344,VALID,122.0,VALID,2.074,
2018-06-26, 02:18:06,VALID,916.998,VALID,0.0,VALID,87.622,VALID,0.003,VALID,18.392,VALID,121.0,VALID,1.711,
2018-06-26, 02:19:06,VALID,917.009,VALID,0.0,VALID,87.209,VALID,0.02,VALID,18.418,VALID,122.0,VALID,1.634,
2018-06-26, 02:20:06,VALID,917.02,VALID,0.0,VALID,87.047,VALID,0.023,VALID,18.444,VALID,124.0,VALID,1.7,
2018-06-26, 02:21:06,VALID,917.03,VALID,0.0,VALID,86.517,VALID,0.002,VALID,18.49,VALID,121.0,VALID,1.678,
2018-06-26, 02:22:06,VALID,917.031,VALID,0.0,VALID,86.633,VALID,0.007,VALID,18.521,VALID,134.0,VALID,0.784,
2018-06-26, 02:23:06,VALID,917.026,VALID,0.0,VALID,86.619,VALID,-0.002,VALID,18.526,VALID,122.0,VALID,1.295,
2018-06-26, 02:24:06,VALID,916.991,VALID,0.0,VALID,86.596,VALID,0.004,VALID,18.516,VALID,130.0,VALID,1.296,
2018-06-26, 02:25:06,VALID,916.97,VALID,0.0,VALID,87.225,VALID,-0.005,VALID,18.493,VALID,131.0,VALID,1.142,
2018-06-26, 02:26:06,VALID,916.958,VALID,0.0,VALID,87.655,VALID,0.004,VALID,18.432,VALID,118.0,VALID,1.505,
2018-06-26, 02:27:06,VALID,916.944,VALID,0.0,VALID,86.984,VALID,0.02,VALID,18.397,VALID,114.0,VALID,1.761,
2018-06-26, 02:28:06,VALID,916.935,VALID,0.0,VALID,86.538,VALID,0.03,VALID,18.425,VALID,114.0,VALID,2.011,
2018-06-26, 02:29:06,VALID,916.93,VALID,0.0,VALID,86.693,VALID,0.009,VALID,18.444,VALID,111.0,VALID,1.688,
2018-06-26, 02:30:06,VALID,916.923,VALID,0.0,VALID,86.937,VALID,-0.001,VALID,18.43,VALID,117.0,VALID,2.06,
2018-06-26, 02:31:06,VALID,916.935,VALID,0.0,VALID,87.143,VALID,0.009,VALID,18.419,VALID,122.0,VALID,1.466,
2018-06-26, 02:32:06,VALID,916.922,VALID,0.0,VALID,86.793,VALID,-0.012,VALID,18.431,VALID,120.0,VALID,1.568,
2018-06-26, 02:33:06,VALID,916.922,VALID,0.0,VALID,86.57,VALID,0.004,VALID,18.458,VALID,116.0,VALID,1.48,
2018-06-26, 02:34:06,VALID,916.916,VALID,0.0,VALID,86.446,VALID,0.02,VALID,18.463,VALID,116.0,VALID,1.946,
2018-06-26, 02:35:06,VALID,916.916,VALID,0.0,VALID,86.391,VALID,0.037,VALID,18.47,VALID,121.0,VALID,1.543,
2018-06-26, 02:36:06,VALID,916.912,VALID,0.0,VALID,86.495,VALID,0.018,VALID,18.46,VALID,118.0,VALID,1.474,
2018-06-26, 02:37:06,VALID,916.922,VALID,0.0,VALID,86.24,VALID,0.026,VALID,18.476,VALID,116.0,VALID,1.601,
2018-06-26, 02:38:06,VALID,916.911,VALID,0.0,VALID,86.228,VALID,0.032,VALID,18.479,VALID,119.0,VALID,1.142,
2018-06-26, 02:39:06,VALID,916.889,VALID,0.0,VALID,86.945,VALID,0.022,VALID,18.499,VALID,136.0,VALID,0.672,
2018-06-26, 02:40:06,VALID,916.877,VALID,0.0,VALID,86.831,VALID,0.039,VALID,18.492,VALID,123.0,VALID,1.64,
2018-06-26, 02:41:06,VALID,916.858,VALID,0.0,VALID,86.453,VALID,0.036,VALID,18.489,VALID,119.0,VALID,1.254,
2018-06-26, 02:42:06,VALID,916.85,VALID,0.0,VALID,86.653,VALID,0.019,VALID,18.478,VALID,123.0,VALID,1.458,
2018-06-26, 02:43:06,VALID,916.841,VALID,0.0,VALID,86.603,VALID,0.029,VALID,18.466,VALID,114.0,VALID,1.617,
2018-06-26, 02:44:06,VALID,916.816,VALID,0.0,VALID,86.812,VALID,0.026,VALID,18.437,VALID,112.0,VALID,1.492,
2018-06-26, 02:45:06,VALID,916.805,VALID,0.0,VALID,87.123,VALID,0.042,VALID,18.412,VALID,118.0,VALID,1.138,
2018-06-26, 02:46:06,VALID,916.792,VALID,0.0,VALID,87.353,VALID,0.028,VALID,18.374,VALID,119.0,VALID,1.039,
2018-06-26, 02:47:06,VALID,916.784,VALID,0.0,VALID,87.292,VALID,0.016,VALID,18.364,VALID,122.0,VALID,1.328,
2018-06-26, 02:48:06,VALID,916.781,VALID,0.0,VALID,87.48,VALID,0.023,VALID,18.385,VALID,126.0,VALID,1.151,
2018-06-26, 02:49:06,VALID,916.771,VALID,0.0,VALID,87.646,VALID,-0.003,VALID,18.392,VALID,136.0,VALID,0.818,
2018-06-26, 02:50:06,VALID,916.778,VALID,0.0,VALID,87.694,VALID,-0.05,VALID,18.395,VALID,125.0,VALID,1.111,
2018-06-26, 02:51:06,VALID,916.774,VALID,0.0,VALID,87.647,VALID,-0.049,VALID,18.397,VALID,128.0,VALID,1.755,
2018-06-26, 02:52:06,VALID,916.778,VALID,0.0,VALID,87.496,VALID,-0.043,VALID,18.399,VALID,125.0,VALID,1.854,
2018-06-26, 02:53:06,VALID,916.786,VALID,0.0,VALID,87.823,VALID,-0.045,VALID,18.398,VALID,115.0,VALID,1.77,
2018-06-26, 02:54:06,VALID,916.792,VALID,0.0,VALID,88.489,VALID,-0.052,VALID,18.36,VALID,119.0,VALID,1.657,
2018-06-26, 02:55:06,VALID,916.802,VALID,0.0,VALID,88.335,VALID,-0.044,VALID,18.326,VALID,115.0,VALID,1.892,
2018-06-26, 02:56:06,VALID,916.82,VALID,0.0,VALID,88.425,VALID,-0.045,VALID,18.347,VALID,117.0,VALID,1.712,
2018-06-26, 02:57:06,VALID,916.828,VALID,0.0,VALID,88.634,VALID,-0.029,VALID,18.343,VALID,121.0,VALID,2.037,
2018-06-26, 02:58:06,VALID,916.835,VALID,0.0,VALID,88.193,VALID,-0.019,VALID,18.374,VALID,120.0,VALID,1.855,
2018-06-26, 02:59:06,VALID,916.835,VALID,0.0,VALID,88.43,VALID,-0.039,VALID,18.398,VALID,127.0,VALID,1.773,
2018-06-26, 03:00:06,VALID,916.838,VALID,0.0,VALID,88.54,VALID,-0.051,VALID,18.381,VALID,119.0,VALID,1.905,
2018-06-26, 03:01:06,VALID,916.827,VALID,0.0,VALID,88.031,VALID,-0.04,VALID,18.38,VALID,119.0,VALID,1.788,
2018-06-26, 03:02:06,VALID,916.826,VALID,0.0,VALID,87.813,VALID,-0.05,VALID,18.404,VALID,123.0,VALID,1.996,
2018-06-26, 03:03:06,VALID,916.806,VALID,0.0,VALID,87.484,VALID,-0.045,VALID,18.438,VALID,120.0,VALID,1.822,
2018-06-26, 03:04:06,VALID,916.789,VALID,0.0,VALID,87.447,VALID,-0.051,VALID,18.454,VALID,125.0,VALID,1.543,
2018-06-26, 03:05:06,VALID,916.793,VALID,0.0,VALID,87.69,VALID,-0.051,VALID,18.437,VALID,121.0,VALID,1.724,
2018-06-26, 03:06:06,VALID,916.768,VALID,0.0,VALID,87.509,VALID,-0.057,VALID,18.448,VALID,119.0,VALID,1.512,
2018-06-26, 03:07:06,VALID,916.768,VALID,0.0,VALID,86.532,VALID,-0.037,VALID,18.503,VALID,110.0,VALID,1.978,
2018-06-26, 03:08:06,VALID,916.763,VALID,0.0,VALID,86.543,VALID,-0.041,VALID,18.547,VALID,111.0,VALID,1.469,
2018-06-26, 03:09:06,VALID,916.765,VALID,0.0,VALID,86.202,VALID,-0.059,VALID,18.556,VALID,105.0,VALID,1.478,
2018-06-26, 03:10:06,VALID,916.754,VALID,0.0,VALID,86.429,VALID,-0.054,VALID,18.591,VALID,103.0,VALID,0.905,
2018-06-26, 03:11:06,VALID,916.75,VALID,0.0,VALID,86.966,VALID,-0.039,VALID,18.559,VALID,100.0,VALID,1.031,
2018-06-26, 03:12:06,VALID,916.744,VALID,0.0,VALID,87.188,VALID,-0.053,VALID,18.52,VALID,102.0,VALID,0.858,
2018-06-26, 03:13:06,VALID,916.73,VALID,0.0,VALID,87.126,VALID,-0.024,VALID,18.491,VALID,100.0,VALID,1.209,
2018-06-26, 03:14:06,VALID,916.717,VALID,0.0,VALID,86.706,VALID,-0.029,VALID,18.508,VALID,94.0,VALID,1.355,
2018-06-26, 03:15:06,VALID,916.7,VALID,0.0,VALID,87.199,VALID,-0.032,VALID,18.519,VALID,88.0,VALID,1.157,
2018-06-26, 03:16:06,VALID,916.678,VALID,0.0,VALID,87.999,VALID,-0.048,VALID,18.472,VALID,85.0,VALID,0.934,
2018-06-26, 03:17:06,VALID,916.665,VALID,0.0,VALID,88.57,VALID,-0.049,VALID,18.397,VALID,89.0,VALID,1.055,
2018-06-26, 03:18:06,VALID,916.655,VALID,0.0,VALID,88.944,VALID,-0.041,VALID,18.349,VALID,90.0,VALID,1.221,
2018-06-26, 03:19:06,VALID,916.628,VALID,0.0,VALID,89.241,VALID,-0.01,VALID,18.324,VALID,95.0,VALID,1.352,
2018-06-26, 03:20:06,VALID,916.632,VALID,0.0,VALID,89.37,VALID,0.048,VALID,18.333,VALID,99.0,VALID,1.525,
2018-06-26, 03:21:06,VALID,916.612,VALID,0.0,VALID,89.328,VALID,0.063,VALID,18.354,VALID,103.0,VALID,1.312,
2018-06-26, 03:22:06,VALID,916.594,VALID,0.0,VALID,89.35,VALID,0.077,VALID,18.376,VALID,94.0,VALID,1.243,
2018-06-26, 03:23:06,VALID,916.58,VALID,0.0,VALID,89.457,VALID,0.068,VALID,18.368,VALID,102.0,VALID,1.214,
2018-06-26, 03:24:06,VALID,916.566,VALID,0.0,VALID,89.409,VALID,0.073,VALID,18.365,VALID,95.0,VALID,1.11,
2018-06-26, 03:25:06,VALID,916.547,VALID,0.0,VALID,89.352,VALID,0.054,VALID,18.357,VALID,96.0,VALID,1.307,
2018-06-26, 03:26:06,VALID,916.522,VALID,0.0,VALID,89.318,VALID,0.056,VALID,18.358,VALID,103.0,VALID,1.291,
2018-06-26, 03:27:06,VALID,916.521,VALID,0.0,VALID,89.079,VALID,0.049,VALID,18.361,VALID,91.0,VALID,1.399,
2018-06-26, 03:28:06,VALID,916.496,VALID,0.0,VALID,89.051,VALID,0.05,VALID,18.356,VALID,96.0,VALID,1.237,
2018-06-26, 03:29:06,VALID,916.485,VALID,0.0,VALID,89.083,VALID,0.069,VALID,18.357,VALID,102.0,VALID,1.036,
2018-06-26, 03:30:06,VALID,916.48,VALID,0.0,VALID,89.2,VALID,0.064,VALID,18.332,VALID,106.0,VALID,1.077,
2018-06-26, 03:31:06,VALID,916.466,VALID,0.0,VALID,89.344,VALID,0.057,VALID,18.328,VALID,108.0,VALID,1.14,
2018-06-26, 03:32:06,VALID,916.466,VALID,0.0,VALID,89.623,VALID,0.079,VALID,18.319,VALID,108.0,VALID,1.216,
2018-06-26, 03:33:06,VALID,916.458,VALID,0.0,VALID,89.985,VALID,0.072,VALID,18.296,VALID,111.0,VALID,1.377,
2018-06-26, 03:34:06,VALID,916.441,VALID,0.0,VALID,90.131,VALID,0.07,VALID,18.283,VALID,109.0,VALID,1.22,
2018-06-26, 03:35:06,VALID,916.435,VALID,0.0,VALID,89.962,VALID,0.075,VALID,18.287,VALID,108.0,VALID,1.498,
2018-06-26, 03:36:06,VALID,916.418,VALID,0.0,VALID,89.969,VALID,0.056,VALID,18.303,VALID,106.0,VALID,1.295,
2018-06-26, 03:37:06,VALID,916.426,VALID,0.0,VALID,89.855,VALID,0.088,VALID,18.297,VALID,103.0,VALID,1.484,
2018-06-26, 03:38:06,VALID,916.413,VALID,0.0,VALID,89.243,VALID,0.092,VALID,18.332,VALID,97.0,VALID,1.279,
2018-06-26, 03:39:06,VALID,916.403,VALID,0.0,VALID,89.397,VALID,0.075,VALID,18.35,VALID,95.0,VALID,1.182,